Weather Roundup
Issued by NWS Corpus Christi, TX

Home | Current Version | Previous Version | Text Only | Print | Product List | Glossary On
Versions: 1 2 3 4 5 6 7 8 9 10 11 12 13 14 15 16 17 18 19 20 21 22 23 24 25 26 27 28 29 30 31 32 33 34 35 36 37 38 39 40 41 42 43 44 45 46 47 48 49 50
000
ASUS44 KCRP 162210
HRRCRP

SOUTH TEXAS REGIONAL WEATHER ROUNDUP
NATIONAL WEATHER SERVICE CORPUS CHRISTI TX
500 PM CDT MON SEP 16 2019


TXZ229>244-162300-
...CORPUS CHRISTI AREA OBSERVATIONS...

CITY           SKY/WX    TMP DP  RH WIND       PRES   REMARKS
CORPUS CHRISTI PTSUNNY   92  72  51 E10       29.86F HX  99
NAS CORPUS CHR PTSUNNY   89  75  63 E10       29.86F HX  99
ROCKPORT       PTSUNNY   88  73  61 NE16      29.87S HX  95
KINGSVILLE NAS PTSUNNY   95  70  44 NE6       29.86F HX 101
ALICE          MOSUNNY   94  67  41 NE12      29.86F HX  97
$$

...VICTORIA AREA OBSERVATIONS...

CITY           SKY/WX    TMP DP  RH WIND       PRES   REMARKS
PORT LAVACA    MOSUNNY   90  76  62 E14       29.88F HX 101
VICTORIA       PTSUNNY   88  72  58 E16       29.89R HX  94
BEEVILLE       FAIR      95  67  39 MISG        N/A  HX  99
PLEASANTON     MOSUNNY   96  61  31 E9        29.89F HX  96
SAN ANTONIO    MOSUNNY   96  61  31 VRB6      29.91F HX  96
$$

...LAREDO AREA OBSERVATIONS...

CITY           SKY/WX    TMP DP  RH WIND       PRES   REMARKS
LAREDO         MOSUNNY   96  66  37 SE5       29.88F HX  99
COTULLA        MOSUNNY   97  58  27 VRB7      29.88F HX  96
DEL RIO        PTSUNNY   95  59  30 SE7       29.91F HX  94
MCALLEN        SUNNY     91  72  53 E9        29.88F HX  98
HEBBRONVILLE   SUNNY     92  62  36 CALM      29.90F HX  92
$$

...OTHER TEXAS OBSERVATIONS...

CITY           SKY/WX    TMP DP  RH WIND       PRES   REMARKS
BROWNSVILLE    FAIR      85  73  67 NE9       29.88F HX  91
HOUSTON        PTSUNNY   83  74  74 E22G29    29.93R
COL. STATION   MOSUNNY   94  65  38 NE9       29.90F HX  96
AUSTIN         MOSUNNY   97  63  32 NE13G22   29.89F HX  98
TEMPLE         MOSUNNY   94  63  35 E13G18    29.94F HX  95
WACO           MOSUNNY   97  61  30 E13G18    29.93F HX  97
FORT WORTH     MOSUNNY   95  65  37 SE13      29.94F HX  97
WICHITA FALLS  MOSUNNY   94  65  38 E15       29.96F HX  96
LUBBOCK        PTSUNNY   88  54  31 SE17      30.06F
EL PASO        PTSUNNY   84  57  39 S8        30.05F
$$

...MARINE OBSERVATIONS...

STATION/POSITION TIME  SKY/WX   TEMP    WIND        PRES    VSBY  WAVE   SWELL
                                AIR SEA DIR/SP/G                  HT/PER HT/PER
                 (UTC)          (F)     (DEG/KT/KT) (MB)    (MI)  (FT/S) (FT/S)
PORT ARANSAS     2200            84 86   40/ 20/ 22 1011.1F
BUOY 90 E PORT A NOT AVBL
BUOY 45 SE BAFFI 2150            83 85   20/ 16/ 19 1011.3F         5/ 8   3/ 8
BUOY 200 E PT IS 2150            83 86  190/ 10/ 12 1011.7S         4/ 8   3/ 8
BUOY 15 E GALVES 2150            83      90/ 16/ 19 1013.1F         4/ 4   2/ 8
$$



USA.gov is the U.S. government's official web portal to all federal, state and local government web resources and services.